Location: Mahannah Oil Field
(37.4664°N, 96.6003°W)
Time: 09:29:31
(UTC+00:00)

Courier 1B - Pass Details

Date: 28 January 2021
Orbit: 962 x 1209 km, 28.3° (Epoch: 02 March)

Event Time Altitude Azimuth Distance (km) Brightness Sun altitude
Rises 08:08:29 0° 263° (W) 3,704 - -62.5°
Reaches altitude 10° 08:11:35 10° 251° (WSW) 2,726 - -62.0°
Maximum altitude 08:16:57 27° 196° (SSW) 1,755 - -61.2°
Drops below altitude 10° 08:22:14 10° 141° (SE) 2,682 - -60.3°
Sets 08:25:15 0° 129° (SE) 3,633 - -59.8°
